User: anonymous   Login
Location: Doazon
(43.4500°N, 0.5500°W)
Time: 17:13:41
(UTC+00:00)
Language:

Cosmos 1697 Rocket - Orbit

View from above orbital plane
View from above orbital plane
View from above satellite
View from above satellite

Ground track
Ground track

The orbit is defined by the following mean orbital elements,

1 16182U          26039.54166198 +.00000000 +00000-0 -15646-4 0 00008
2 16182  71.0017 201.9143 0009591 293.7352 130.4329 14.16596407    06
Epoch (UTC): 08 February 2026 12:59:59
Eccentricity: 0.0009591
inclination: 71.0017°
perigee height: 830 km
apogee height: 844 km
right ascension of ascending node: 201.9143°
argument of perigee: 293.7352°
revolutions per day: 14.16596407
mean anomaly at epoch: 130.4329°

The dashed part of the orbit path shows where the satellite is in the earth's shadow,  

DLR